DW0307 Weather Reports


time (UTC)temp
C
wind
direction
speed
KPH
gust
KPH
rain 1hr
cm
rain 24hr
cm
rain mn
cm
humidity
%
barometer
mb
20260508191551 10 38 11.3 22.5 0.00 0.38 0.30 87 1017.6
20260508190058 10 31 9.7 19.3 0.08 0.38 0.30 87 1017.5
20260508184542 11 54 11.3 20.9 0.13 0.46 0.30 87 1017.4
20260508183109 11 51 8.0 17.7 0.10 0.43 0.28 86 1017.2
20260508181552 11 30 11.3 22.5 0.10 0.43 0.28 84 1017.1
20260508180100 12 46 4.8 16.1 0.03 0.36 0.20 82 1017.1
20260508174601 12 5 8.0 17.7 0.00 0.51 0.18 80 1017.1
20260508173047 12 59 9.7 19.3 0.00 0.51 0.18 80 1016.8
20260508171543 12 32 12.9 20.9 0.00 0.51 0.18 80 1016.7
20260508170107 12 35 12.9 22.5 0.00 0.51 0.18 80 1016.6
20260508164552 12 49 9.7 22.5 0.00 0.74 0.18 80 1016.7
20260508163051 13 28 14.5 22.5 0.00 0.74 0.18 79 1016.6
20260508161549 13 5 11.3 17.7 0.00 0.71 0.15 77 1016.6
20260508160052 13 34 11.3 22.5 0.00 0.71 0.15 79 1016.5
20260508154548 13 19 9.7 20.9 0.00 0.91 0.15 78 1016.5
20260508153056 14 38 9.7 20.9 0.00 0.91 0.15 78 1016.6
20260508151550 14 33 14.5 22.5 0.00 0.91 0.15 76 1016.4
20260508150049 15 53 11.3 17.7 0.00 0.91 0.15 75 1016.4
20260508144553 15 45 16.1 25.7 0.00 0.94 0.15 75 1016.3
20260508143055 15 39 11.3 19.3 0.00 0.94 0.15 76 1016.2
20260508141550 15 48 11.3 17.7 0.00 0.94 0.15 77 1016.3
20260508140041 15 34 9.7 19.3 0.00 0.94 0.15 77 1016.2
20260508134545 14 44 12.9 19.3 0.00 0.97 0.15 79 1016.2
20260508133045 14 42 8.0 19.3 0.00 0.97 0.15 80 1016.2
20260508131556 14 38 14.5 20.9 0.00 0.97 0.15 78 1016.3
20260508130053 15 17 16.1 22.5 0.00 0.97 0.15 78 1016.2
20260508124548 14 42 14.5 22.5 0.00 0.97 0.15 77 1016.4
20260508123052 15 28 11.3 19.3 0.00 0.97 0.15 73 1016.3
20260508121558 15 113 8.0 16.1 0.00 0.97 0.15 67 1016.3
20260508120109 16 46 3.2 19.3 0.00 0.97 0.15 65 1016.2
20260508114559 17 26 4.8 16.1 0.00 0.97 0.15 66 1015.9
20260508113106 16 63 9.7 17.7 0.00 0.97 0.15 67 1016.0
20260508111551 16 40 9.7 19.3 0.00 0.97 0.15 68 1016.1
20260508110100 15 46 12.9 20.9 0.00 0.97 0.15 67 1016.0
20260508104548 15 56 9.7 22.5 0.00 0.97 0.15 70 1016.1
20260508103058 16 71 9.7 22.5 0.00 0.97 0.15 71 1016.0
20260508101554 16 34 11.3 22.5 0.00 0.97 0.15 71 1015.9
20260508100047 15 77 8.0 19.3 0.00 0.97 0.15 74 1016.1
20260508094547 15 53 8.0 17.7 0.00 0.97 0.15 77 1016.1
20260508093047 13 5 8.0 17.7 0.00 0.97 0.15 82 1016.2
20260508091546 12 360 12.9 19.3 0.00 0.97 0.15 85 1016.2
20260508090043 13 28 12.9 20.9 0.00 0.94 0.13 81 1016.2
20260508084547 14 82 3.2 14.5 0.00 0.94 0.13 78 1016.2
20260508083049 14 129 9.7 14.5 0.00 0.94 0.13 80 1016.2
20260508081547 13 109 4.8 11.3 0.00 0.94 0.13 82 1016.2
20260508080048 12 192 3.2 8.0 0.00 0.94 0.13 87 1016.2
20260508074547 12 74 1.6 8.0 0.00 0.94 0.13 88 1016.1
20260508073043 12 109 0.0 6.4 0.00 0.94 0.13 89 1016.0
20260508071543 11 82 4.8 11.3 0.00 0.94 0.13 90 1015.9
20260508070053 11 93 4.8 11.3 0.00 0.94 0.13 91 1016.0
20260508064633 11 88 3.2 8.0 0.00 0.94 0.13 92 1015.8
20260508063057 11 167 1.6 4.8 0.00 0.94 0.13 92 1015.8
20260508061546 11 0 0.0 3.2 0.00 0.94 0.13 92 1015.7
20260508060048 10 0 0.0 4.8 0.00 0.94 0.13 92 1015.7
20260508054548 10 176 1.6 4.8 0.00 0.94 0.13 92 1015.5
20260508053055 10 0 1.6 4.8 0.00 0.94 0.13 92 1015.3
20260508051550 10 0 0.0 4.8 0.00 0.94 0.13 92 1015.3
20260508050049 10 175 0.0 6.4 0.00 0.94 0.13 92 1015.4
20260508044547 9 167 1.6 9.7 0.00 0.94 0.13 92 1015.2
20260508043058 9 286 1.6 4.8 0.00 0.94 0.13 92 1015.1
20260508041553 9 290 1.6 4.8 0.00 0.94 0.13 92 1015.2
20260508040051 8 290 1.6 8.0 0.00 0.94 0.13 92 1015.0
20260508034542 8 312 3.2 12.9 0.00 0.94 0.13 92 1015.0
20260508033040 9 255 4.8 11.3 0.00 0.94 0.13 92 1014.7
20260508031549 9 257 4.8 9.7 0.00 0.94 0.13 91 1014.6
20260508030047 10 215 4.8 9.7 0.00 0.94 0.13 92 1014.5
20260508024544 10 0 0.0 3.2 0.00 0.94 0.13 92 1014.3
20260508023043 10 0 0.0 3.2 0.00 0.94 0.13 92 1014.2
20260508021555 10 0 0.0 1.6 0.00 0.94 0.13 92 1014.2
20260508020049 10 0 0.0 1.6 0.00 0.94 0.13 92 1014.4
20260508014548 10 0 0.0 3.2 0.00 0.94 0.13 91 1014.3
20260508013053 10 0 0.0 1.6 0.00 0.94 0.13 91 1014.6
20260508011544 10 0 0.0 0.0 0.00 0.94 0.10 91 1014.6
20260508010050 10 0 0.0 0.0 0.00 0.94 0.10 91 1014.5
20260508004548 10 0 0.0 0.0 0.00 0.94 0.10 91 1014.3
20260508003044 10 298 1.6 3.2 0.00 0.94 0.10 91 1014.2
20260508001611 10 0 0.0 3.2 0.00 0.94 0.10 91 1014.4
20260508000048 10 0 0.0 3.2 0.00 0.94 0.10 91 1014.3
20260507234549 10 298 0.0 3.2 0.00 0.94 0.08 91 1014.5
20260507233050 10 0 0.0 1.6 0.05 0.94 0.08 91 1014.7
20260507231549 10 298 1.6 4.8 0.08 0.94 0.08 91 1014.9
20260507230048 10 299 3.2 4.8 0.08 0.94 0.08 91 1015.0
20260507224554 10 299 0.0 4.8 0.08 0.94 0.08 91 1014.9
20260507223048 10 305 1.6 4.8 0.03 0.91 0.03 91 1014.9
20260507221552 10 318 0.0 3.2 0.00 0.89 0.00 91 1014.8
20260507220052 10 0 0.0 1.6 0.00 0.86 0.00 91 1014.8
20260507214551 10 0 0.0 0.0 0.00 0.86 0.86 91 1014.7
20260507213048 10 0 0.0 1.6 0.00 0.86 0.86 91 1014.7
20260507211547 10 0 0.0 4.8 0.00 0.86 0.86 90 1014.7
20260507210045 10 0 0.0 0.0 0.03 0.86 0.86 90 1014.6
20260507204553 11 318 0.0 3.2 0.05 0.86 0.86 90 1014.6
20260507203045 11 0 0.0 3.2 0.05 0.84 0.84 90 1014.5
20260507201553 11 0 0.0 3.2 0.05 0.84 0.84 90 1014.3
20260507200045 11 0 0.0 3.2 0.03 0.84 0.84 90 1014.4
20260507194544 11 318 4.8 6.4 0.00 0.81 0.81 90 1014.4
20260507193047 11 36 0.0 3.2 0.00 0.79 0.79 90 1014.5